TAP033 LIRA-LGZA

Flight info

Callsign TAP033
Flight time 1h 12m
Altitude 37000
Route SIPRO DCT TEA DCT NILTO DCT ALIXI DCT RUTOM UM601 LASKO
Aircraft A321/M-SDE3FGHIRWY/LB1

Departure

Time 2026-04-27 14:00
Airport Ciampino–G. B. Pastine International Airport (LIRA)

Arrival

Time 2026-04-27 15:12
Airport Zakynthos International Airport Dionysios Solomos (LGZA)
Time Latitude Longitude Altitude Speed Heading
2026-04-27 13:32 41.80048 12.59084 393 ft 0 kts 282°
2026-04-27 13:53 41.80045 12.59142 393 ft 4 kts 259°
2026-04-27 13:53 41.80052 12.59177 393 ft 4 kts 257°
2026-04-27 13:53 41.80056 12.59197 393 ft 2 kts 328°
2026-04-27 13:54 41.80055 12.59199 393 ft 0 kts 333°
2026-04-27 13:56 41.80056 12.59198 393 ft 2 kts 333°
2026-04-27 13:56 41.80090 12.59175 393 ft 6 kts 333°
2026-04-27 13:56 41.80129 12.59148 393 ft 6 kts 333°
2026-04-27 13:56 41.80166 12.59124 393 ft 6 kts 333°
2026-04-27 13:57 41.80237 12.59075 392 ft 18 kts 333°
2026-04-27 13:57 41.80350 12.58994 393 ft 18 kts 332°
2026-04-27 13:57 41.80461 12.58916 392 ft 18 kts 332°
2026-04-27 13:57 41.80570 12.58842 393 ft 17 kts 333°
2026-04-27 13:58 41.80675 12.58770 393 ft 17 kts 333°
2026-04-27 13:58 41.80740 12.58803 393 ft 2 kts 63°
2026-04-27 13:58 41.80746 12.58818 393 ft 4 kts 63°
2026-04-27 13:58 41.80768 12.58878 394 ft 5 kts 71°
2026-04-27 13:59 41.80755 12.58913 394 ft 4 kts 132°
2026-04-27 13:59 41.80742 12.58926 394 ft 0 kts 149°
2026-04-27 13:59 41.80734 12.58932 394 ft 7 kts 150°
2026-04-27 13:59 41.80495 12.59099 392 ft 81 kts 153°
2026-04-27 14:00 41.79764 12.59603 393 ft 151 kts 153°
2026-04-27 14:00 41.78733 12.60302 777 ft 175 kts 157°
2026-04-27 14:00 41.77536 12.60934 1383 ft 187 kts 164°
2026-04-27 14:00 41.76283 12.61362 2122 ft 189 kts 177°
2026-04-27 14:01 41.74970 12.61035 2429 ft 202 kts 208°
2026-04-27 14:01 41.73936 12.59691 2703 ft 217 kts 241°
2026-04-27 14:01 41.73372 12.57822 3377 ft 215 kts 251°
2026-04-27 14:01 41.72896 12.55862 3945 ft 226 kts 254°
2026-04-27 14:02 41.72525 12.53788 4634 ft 231 kts 258°
2026-04-27 14:02 41.72204 12.51695 5420 ft 230 kts 256°
2026-04-27 14:02 41.71749 12.49633 6110 ft 233 kts 242°
2026-04-27 14:02 41.70749 12.47874 6537 ft 249 kts 223°
2026-04-27 14:03 41.69418 12.46253 6979 ft 265 kts 219°
2026-04-27 14:03 41.67991 12.44652 7680 ft 270 kts 215°
2026-04-27 14:03 41.66296 12.43707 8369 ft 272 kts 185°
2026-04-27 14:03 41.64430 12.44026 9075 ft 276 kts 158°
2026-04-27 14:04 41.62797 12.45435 9612 ft 286 kts 132°
2026-04-27 14:04 41.61703 12.47657 10257 ft 291 kts 116°
2026-04-27 14:04 41.60750 12.50150 10493 ft 312 kts 116°
2026-04-27 14:04 41.59730 12.52828 10660 ft 333 kts 116°
2026-04-27 14:05 41.58664 12.55619 11152 ft 341 kts 116°
2026-04-27 14:05 41.57574 12.58458 11753 ft 346 kts 117°
2026-04-27 14:05 41.56464 12.61333 12368 ft 351 kts 117°
2026-04-27 14:05 41.55338 12.64243 13001 ft 355 kts 117°
2026-04-27 14:06 41.54197 12.67191 13627 ft 360 kts 117°
2026-04-27 14:06 41.53040 12.70178 14205 ft 364 kts 117°
2026-04-27 14:06 41.51871 12.73201 14753 ft 369 kts 117°
2026-04-27 14:06 41.50686 12.76260 15309 ft 373 kts 117°
2026-04-27 14:07 41.49489 12.79346 15883 ft 377 kts 117°
2026-04-27 14:07 41.48282 12.82460 16476 ft 380 kts 117°
2026-04-27 14:07 41.47062 12.85603 17032 ft 384 kts 117°
2026-04-27 14:07 41.45827 12.88779 17571 ft 387 kts 117°
2026-04-27 14:08 41.44582 12.91980 18107 ft 391 kts 117°
2026-04-27 14:08 41.43324 12.95210 18587 ft 395 kts 117°
2026-04-27 14:08 41.42049 12.98468 19029 ft 398 kts 118°
2026-04-27 14:08 41.40717 13.01711 19494 ft 400 kts 120°
2026-04-27 14:09 41.39321 13.04937 19947 ft 403 kts 121°
2026-04-27 14:09 41.37886 13.08161 20392 ft 406 kts 121°
2026-04-27 14:09 41.36430 13.11395 20817 ft 409 kts 121°
2026-04-27 14:09 41.34964 13.14654 21238 ft 411 kts 121°
2026-04-27 14:10 41.33516 13.17897 21650 ft 414 kts 121°
2026-04-27 14:10 41.32052 13.21207 22077 ft 416 kts 121°
2026-04-27 14:10 41.30586 13.24542 22497 ft 419 kts 121°
2026-04-27 14:10 41.29111 13.27899 22910 ft 421 kts 121°
2026-04-27 14:11 41.27627 13.31273 23299 ft 424 kts 121°
2026-04-27 14:11 41.26134 13.34666 23683 ft 426 kts 121°
2026-04-27 14:11 41.24633 13.38072 24027 ft 429 kts 121°
2026-04-27 14:11 41.23118 13.41495 24364 ft 431 kts 121°
2026-04-27 14:12 41.21592 13.44932 24722 ft 433 kts 121°
2026-04-27 14:12 41.20058 13.48376 25054 ft 435 kts 121°
2026-04-27 14:12 41.18513 13.51834 25407 ft 437 kts 121°
2026-04-27 14:12 41.16960 13.55307 25757 ft 438 kts 121°
2026-04-27 14:13 41.15401 13.58797 26105 ft 441 kts 121°
2026-04-27 14:13 41.13837 13.62302 26438 ft 443 kts 121°
2026-04-27 14:13 41.12267 13.65823 26782 ft 445 kts 121°
2026-04-27 14:13 41.10691 13.69360 27103 ft 447 kts 121°
2026-04-27 14:14 41.09106 13.72912 27428 ft 449 kts 121°
2026-04-27 14:14 41.07511 13.76482 27745 ft 451 kts 121°
2026-04-27 14:14 41.05905 13.80066 28067 ft 453 kts 121°
2026-04-27 14:14 41.04313 13.83604 28379 ft 455 kts 121°
2026-04-27 14:15 41.02682 13.87216 28683 ft 457 kts 121°
2026-04-27 14:15 41.01045 13.90838 28989 ft 459 kts 121°
2026-04-27 14:15 40.99407 13.94472 29296 ft 461 kts 120°
2026-04-27 14:15 40.97758 13.98134 29594 ft 464 kts 120°
2026-04-27 14:16 40.96103 14.01805 29896 ft 466 kts 120°
2026-04-27 14:16 40.94440 14.05491 30170 ft 468 kts 120°
2026-04-27 14:16 40.92766 14.09189 30402 ft 470 kts 121°
2026-04-27 14:16 40.91082 14.12897 30629 ft 471 kts 121°
2026-04-27 14:17 40.89386 14.16615 30858 ft 473 kts 121°
2026-04-27 14:17 40.87686 14.20346 31087 ft 475 kts 121°
2026-04-27 14:17 40.86559 14.22822 31259 ft 475 kts 121°
2026-04-27 14:17 40.84859 14.26556 31574 ft 474 kts 121°
2026-04-27 14:18 40.83161 14.30275 31891 ft 473 kts 121°
2026-04-27 14:18 40.81461 14.33993 32209 ft 472 kts 121°
2026-04-27 14:18 40.79765 14.37705 32523 ft 472 kts 121°
2026-04-27 14:18 40.78071 14.41410 32851 ft 471 kts 121°
2026-04-27 14:19 40.76380 14.45100 33159 ft 470 kts 121°
2026-04-27 14:19 40.74686 14.48790 33472 ft 469 kts 122°
2026-04-27 14:19 40.72994 14.52468 33778 ft 469 kts 122°
2026-04-27 14:19 40.71303 14.56144 34075 ft 468 kts 122°
2026-04-27 14:20 40.69612 14.59810 34353 ft 467 kts 122°
2026-04-27 14:20 40.67922 14.63462 34594 ft 467 kts 122°
2026-04-27 14:20 40.66231 14.67111 34839 ft 467 kts 122°
2026-04-27 14:20 40.64542 14.70759 35072 ft 467 kts 122°
2026-04-27 14:21 40.62854 14.74409 35324 ft 466 kts 122°
2026-04-27 14:21 40.61174 14.78050 35566 ft 466 kts 122°
2026-04-27 14:21 40.59514 14.81638 35788 ft 465 kts 122°
2026-04-27 14:21 40.57806 14.85322 36017 ft 465 kts 122°
2026-04-27 14:22 40.56120 14.88947 36229 ft 465 kts 122°
2026-04-27 14:22 40.54456 14.92515 36445 ft 464 kts 122°
2026-04-27 14:22 40.52767 14.96130 36651 ft 464 kts 122°
2026-04-27 14:22 40.51080 14.99749 36848 ft 464 kts 122°
2026-04-27 14:23 40.49396 15.03359 37052 ft 464 kts 122°
2026-04-27 14:23 40.46029 15.10558 37131 ft 461 kts 122°
2026-04-27 14:24 40.42667 15.17706 37123 ft 460 kts 122°
2026-04-27 14:24 40.39307 15.24853 37121 ft 460 kts 122°
2026-04-27 14:25 40.35949 15.31993 37116 ft 460 kts 122°
2026-04-27 14:25 40.32580 15.39115 37122 ft 460 kts 122°
2026-04-27 14:26 40.29205 15.46231 37125 ft 460 kts 122°
2026-04-27 14:26 40.25825 15.53342 37135 ft 460 kts 122°
2026-04-27 14:27 40.22445 15.60453 37135 ft 460 kts 122°
2026-04-27 14:27 40.19071 15.67558 37134 ft 460 kts 123°
2026-04-27 14:28 40.15683 15.74655 37134 ft 460 kts 123°
2026-04-27 14:28 40.12317 15.81691 37135 ft 460 kts 123°
2026-04-27 14:29 40.08917 15.88764 37129 ft 459 kts 123°
2026-04-27 14:29 40.05511 15.95820 37122 ft 459 kts 123°
2026-04-27 14:30 40.02117 16.02882 37130 ft 459 kts 123°
2026-04-27 14:30 39.98721 16.09937 37130 ft 459 kts 123°
2026-04-27 14:31 39.95311 16.16983 37126 ft 459 kts 123°
2026-04-27 14:31 39.91891 16.24005 37121 ft 459 kts 123°
2026-04-27 14:32 39.88475 16.31024 37116 ft 459 kts 123°
2026-04-27 14:32 39.85058 16.38038 37110 ft 459 kts 123°
2026-04-27 14:33 39.81660 16.44995 37110 ft 458 kts 123°
2026-04-27 14:33 39.78248 16.51980 37109 ft 458 kts 123°
2026-04-27 14:34 39.74762 16.58903 37115 ft 457 kts 124°
2026-04-27 14:34 39.71202 16.65743 37104 ft 457 kts 125°
2026-04-27 14:35 39.67638 16.72571 37104 ft 456 kts 125°
2026-04-27 14:35 39.64094 16.79402 37097 ft 456 kts 125°
2026-04-27 14:36 39.60541 16.86230 37097 ft 456 kts 125°
2026-04-27 14:36 39.56986 16.93045 37109 ft 457 kts 125°
2026-04-27 14:37 39.53425 16.99857 37109 ft 457 kts 125°
2026-04-27 14:37 39.49884 17.06625 37106 ft 457 kts 125°
2026-04-27 14:38 39.46312 17.13435 37114 ft 457 kts 125°
2026-04-27 14:38 39.42738 17.20234 37110 ft 457 kts 125°
2026-04-27 14:39 39.39156 17.27038 37113 ft 457 kts 125°
2026-04-27 14:39 39.35570 17.33818 37110 ft 457 kts 125°
2026-04-27 14:40 39.31979 17.40598 37100 ft 457 kts 125°
2026-04-27 14:40 39.28392 17.47374 37100 ft 457 kts 125°
2026-04-27 14:41 39.24801 17.54148 37101 ft 457 kts 126°
2026-04-27 14:41 39.21204 17.60908 37106 ft 457 kts 126°
2026-04-27 14:42 39.17628 17.67622 37106 ft 457 kts 126°
2026-04-27 14:42 39.14020 17.74377 37114 ft 457 kts 126°
2026-04-27 14:43 39.10406 17.81121 37106 ft 457 kts 126°
2026-04-27 14:43 39.06798 17.87861 37105 ft 457 kts 126°
2026-04-27 14:44 39.03179 17.94598 37102 ft 457 kts 126°
2026-04-27 14:44 38.99557 18.01320 37102 ft 458 kts 126°
2026-04-27 14:45 38.95925 18.08047 37100 ft 458 kts 126°
2026-04-27 14:45 38.92286 18.14760 37099 ft 458 kts 126°
2026-04-27 14:46 38.88650 18.21470 37092 ft 458 kts 126°
2026-04-27 14:46 38.85009 18.28176 37094 ft 458 kts 126°
2026-04-27 14:47 38.81386 18.34828 37095 ft 458 kts 125°
2026-04-27 14:47 38.78563 18.42149 37092 ft 459 kts 114°
2026-04-27 14:48 38.75986 18.49644 37092 ft 460 kts 114°
2026-04-27 14:48 38.72117 18.60897 37093 ft 460 kts 115°
2026-04-27 14:49 38.69521 18.68395 37091 ft 461 kts 115°
2026-04-27 14:49 38.66917 18.75880 37095 ft 461 kts 115°
2026-04-27 14:50 38.64305 18.83380 37086 ft 461 kts 115°
2026-04-27 14:50 38.62970 18.87113 36447 ft 461 kts 116°
2026-04-27 14:50 38.61596 18.90850 34832 ft 468 kts 116°
2026-04-27 14:51 38.60173 18.94629 33747 ft 475 kts 117°
2026-04-27 14:51 38.58724 18.98444 32670 ft 479 kts 117°
2026-04-27 14:51 38.57265 19.02283 31630 ft 482 kts 116°
2026-04-27 14:51 38.56298 19.04843 30965 ft 483 kts 116°
2026-04-27 14:52 38.54353 19.10031 29575 ft 485 kts 116°
2026-04-27 14:52 38.52902 19.13923 28467 ft 485 kts 116°
2026-04-27 14:52 38.51470 19.17764 27420 ft 485 kts 115°
2026-04-27 14:52 38.50027 19.21627 26792 ft 477 kts 116°
2026-04-27 14:53 38.48621 19.25380 26539 ft 461 kts 116°
2026-04-27 14:53 38.47256 19.29011 26270 ft 447 kts 116°
2026-04-27 14:53 38.45921 19.32549 25798 ft 439 kts 116°
2026-04-27 14:53 38.44604 19.36033 25267 ft 433 kts 116°
2026-04-27 14:54 38.43303 19.39471 24775 ft 427 kts 116°
2026-04-27 14:54 38.42020 19.42857 24285 ft 421 kts 115°
2026-04-27 14:54 38.40759 19.46192 23799 ft 414 kts 115°
2026-04-27 14:54 38.39521 19.49467 23264 ft 407 kts 115°
2026-04-27 14:55 38.38303 19.52686 22803 ft 399 kts 115°
2026-04-27 14:55 38.37105 19.55841 22345 ft 392 kts 116°
2026-04-27 14:55 38.35923 19.58946 21876 ft 386 kts 116°
2026-04-27 14:55 38.34759 19.61993 21424 ft 380 kts 116°
2026-04-27 14:56 38.33607 19.65006 20961 ft 376 kts 116°
2026-04-27 14:56 38.32469 19.67980 20515 ft 372 kts 116°
2026-04-27 14:56 38.31344 19.70926 20051 ft 368 kts 116°
2026-04-27 14:56 38.30229 19.73846 19600 ft 365 kts 116°
2026-04-27 14:57 38.29127 19.76736 19151 ft 362 kts 116°
2026-04-27 14:57 38.28033 19.79606 18698 ft 359 kts 116°
2026-04-27 14:57 38.26943 19.82459 18231 ft 357 kts 116°
2026-04-27 14:57 38.25877 19.85246 17776 ft 353 kts 116°
2026-04-27 14:58 38.24809 19.88036 17338 ft 349 kts 116°
2026-04-27 14:58 38.23749 19.90794 16916 ft 345 kts 116°
2026-04-27 14:58 38.22700 19.93517 16498 ft 341 kts 116°
2026-04-27 14:58 38.21664 19.96204 16084 ft 337 kts 116°
2026-04-27 14:59 38.20637 19.98868 15678 ft 334 kts 116°
2026-04-27 14:59 38.19618 20.01505 15272 ft 330 kts 116°
2026-04-27 14:59 38.18612 20.04113 14873 ft 327 kts 116°
2026-04-27 14:59 38.17614 20.06701 14455 ft 325 kts 116°
2026-04-27 15:00 38.16622 20.09270 14064 ft 323 kts 116°
2026-04-27 15:00 38.15636 20.11818 13639 ft 320 kts 116°
2026-04-27 15:00 38.14657 20.14345 13228 ft 318 kts 116°
2026-04-27 15:00 38.13685 20.16856 12829 ft 315 kts 116°
2026-04-27 15:01 38.12725 20.19340 12427 ft 312 kts 116°
2026-04-27 15:01 38.11770 20.21809 12024 ft 310 kts 116°
2026-04-27 15:01 38.10821 20.24249 11616 ft 307 kts 116°
2026-04-27 15:01 38.09880 20.26666 11229 ft 304 kts 116°
2026-04-27 15:02 38.08947 20.29060 10826 ft 301 kts 116°
2026-04-27 15:02 38.08034 20.31400 10442 ft 298 kts 116°
2026-04-27 15:02 38.07121 20.33740 10111 ft 294 kts 116°
2026-04-27 15:02 38.06224 20.36037 9950 ft 289 kts 116°
2026-04-27 15:03 38.05332 20.38320 9811 ft 288 kts 116°
2026-04-27 15:03 38.04439 20.40603 9545 ft 288 kts 116°
2026-04-27 15:03 38.03554 20.42872 9121 ft 286 kts 116°
2026-04-27 15:03 38.02676 20.45128 8665 ft 284 kts 116°
2026-04-27 15:04 38.01802 20.47369 8222 ft 283 kts 116°
2026-04-27 15:04 38.00923 20.49610 7749 ft 283 kts 117°
2026-04-27 15:04 38.00049 20.51833 7327 ft 281 kts 117°
2026-04-27 15:04 37.99182 20.54040 6888 ft 280 kts 117°
2026-04-27 15:05 37.98333 20.56204 6477 ft 277 kts 117°
2026-04-27 15:05 37.97472 20.58399 5953 ft 278 kts 117°
2026-04-27 15:05 37.96622 20.60560 5482 ft 273 kts 117°
2026-04-27 15:05 37.95778 20.62704 5027 ft 271 kts 117°
2026-04-27 15:06 37.94939 20.64834 4595 ft 267 kts 118°
2026-04-27 15:06 37.94136 20.66878 4186 ft 251 kts 118°
2026-04-27 15:06 37.93371 20.68820 3800 ft 245 kts 118°
2026-04-27 15:06 37.92621 20.70721 3408 ft 237 kts 118°
2026-04-27 15:07 37.91902 20.72551 3203 ft 225 kts 118°
2026-04-27 15:07 37.91243 20.74232 3134 ft 206 kts 118°
2026-04-27 15:07 37.90635 20.75778 3051 ft 187 kts 118°
2026-04-27 15:07 37.90073 20.77197 2966 ft 173 kts 119°
2026-04-27 15:08 37.89551 20.78514 2899 ft 163 kts 119°
2026-04-27 15:08 37.89046 20.79784 2829 ft 160 kts 118°
2026-04-27 15:08 37.88547 20.81041 2759 ft 159 kts 118°
2026-04-27 15:08 37.88050 20.82290 2691 ft 159 kts 120°
2026-04-27 15:09 37.87377 20.83379 2621 ft 157 kts 140°
2026-04-27 15:09 37.86486 20.84119 2636 ft 149 kts 157°
2026-04-27 15:09 37.85515 20.84507 2675 ft 145 kts 169°
2026-04-27 15:09 37.84535 20.84805 2509 ft 145 kts 165°
2026-04-27 15:10 37.83575 20.85170 2220 ft 144 kts 163°
2026-04-27 15:10 37.82618 20.85554 1869 ft 147 kts 164°
2026-04-27 15:10 37.81643 20.85936 1619 ft 145 kts 164°
2026-04-27 15:10 37.80683 20.86317 1361 ft 143 kts 165°
2026-04-27 15:11 37.79724 20.86665 1094 ft 142 kts 166°
2026-04-27 15:11 37.78775 20.87033 820 ft 143 kts 164°
2026-04-27 15:11 37.77823 20.87404 532 ft 143 kts 165°
2026-04-27 15:11 37.76884 20.87752 264 ft 142 kts 164°
2026-04-27 15:12 37.75935 20.88102 50 ft 142 kts 162°
2026-04-27 15:12 37.75136 20.88410 19 ft 81 kts 163°
2026-04-27 15:12 37.74805 20.88536 21 ft 38 kts 163°
2026-04-27 15:12 37.74659 20.88573 21 ft 11 kts 192°
2026-04-27 15:13 37.74619 20.88584 23 ft 2 kts 81°
2026-04-27 15:13 37.74653 20.88592 23 ft 10 kts 347°
2026-04-27 15:13 37.74719 20.88566 21 ft 10 kts 342°
2026-04-27 15:13 37.74794 20.88538 21 ft 12 kts 344°
2026-04-27 15:14 37.74895 20.88501 19 ft 21 kts 344°
2026-04-27 15:14 37.75027 20.88469 19 ft 14 kts 11°
2026-04-27 15:14 37.75094 20.88518 22 ft 8 kts 37°
2026-04-27 15:14 37.75134 20.88529 22 ft 13 kts 355°
2026-04-27 15:15 37.75231 20.88495 22 ft 15 kts 343°
2026-04-27 15:15 37.75312 20.88465 22 ft 10 kts 344°
2026-04-27 15:15 37.75351 20.88479 22 ft 3 kts 63°
2026-04-27 15:15 37.75357 20.88496 22 ft 2 kts 68°
2026-04-27 15:16 37.75365 20.88527 23 ft 4 kts 72°
2026-04-27 15:16 37.75368 20.88536 22 ft 1 kts 73°
2026-04-27 15:16 37.75368 20.88537 22 ft 0 kts 73°